Terminal Aerodrome Forecast
Issued by NWS Bismarck, ND

Home | Current Version | Previous Version | Graphics & Text | Print | Product List | Glossary On
Versions: 1 2 3 4 5 6 7 8 9 10 11 12 13 14 15 16 17 18 19 20 21
000
FTUS43 KBIS 270800 AAA
TAFISN
TAF AMD
KISN 270802Z 2708/2806 34007KT 6SM -RA BR BKN025
     FM271500 31006KT P6SM BKN020
     FM271900 32006KT P6SM SCT015 BKN035=

USA.gov is the U.S. government's official web portal to all federal, state and local government web resources and services.